Home > Weather > Görlitz > Past weeks

Flag for Germany Past Weather in Görlitz, Saxony, Germany — Yesterday and Last 2 Weeks

Now
70 °F

Partly sunny.


Feels Like: 70 °F
Forecast: 56 / 71 °F
Wind: 2 mph from Southeast

Location: Liberec

Current Time: Jul 31, 2016 at 9:36:26 AM

Latest Report: Jul 31, 2016 at 8:00 AM


Visibility: 25 mi

Pressure: 29.86 "Hg

Humidity: 61%

Dew Point: 56 °F

Location of GörlitzLocation

Past Weather in Görlitz — Graph

°F

Görlitz Temperature Yesterday

Maximum temperature yesterday: 78 °F (at 6:00 PM)
Minimum temperature yesterday: 60 °F (at 6:00 AM)
Average temperature yesterday: 68 °F

High & Low Weather Summary for the Past Weeks

 TemperatureHumidityPressure
High81 °F (Jul 23, 4:00 PM)98% (Jul 18, 12:00 AM)30.25 "Hg (Jul 18, 12:00 AM)
Low47 °F (Jul 17, 2:00 AM)38% (Jul 23, 1:00 PM)29.86 "Hg (Jul 30, 6:00 PM)
Average66 °F74%30.04 "Hg
* Reported Jul 16 8:00 AM — Jul 31 8:00 AM, Görlitz, Weather by CustomWeather, © 2016

Note: Actual official high and low records may vary slightly from our data, if they occured in-between our weather recording intervals... More about our weather records

Advertising

Görlitz Weather History for the Previous 24 Hours

Scroll right to see more
 ConditionsComfort  
Time TempWeatherWind HumidityBarometerVisibility
8:00 AM
Sun, Jul 31
70 °FPartly sunny.2 mph61%29.86 "Hg25 mi
7:00 AM63 °FMild.1 mph79%29.88 "Hg12 mi
6:00 AM59 °FCool.1 mph97%29.89 "Hg12 mi
5:00 AM56 °FCool.No wind95%29.90 "Hg7 mi
4:00 AM59 °FCool.1 mph93%29.91 "Hg9 mi
3:00 AM63 °FMild.1 mph89%29.90 "Hg12 mi
2:00 AM63 °FMild.1 mph93%29.92 "Hg12 mi
1:00 AM63 °FMild.1 mph93%29.92 "Hg12 mi
12:00 AM60 °FCool.No wind91%29.93 "Hg12 mi
11:00 PM
Sat, Jul 30
62 °FCool.No wind88%29.93 "Hg12 mi
10:00 PM65 °FPassing clouds.1 mph83%29.92 "Hg19 mi
9:00 PM64 °FPassing clouds.2 mph80%29.92 "Hg22 mi
8:00 PM70 °FScattered clouds.2 mph66%29.90 "Hg25 mi
7:00 PM76 °FMild.2 mph45%29.86 "Hg12 mi
6:00 PM78 °FWarm.5 mph42%29.86 "Hg12 mi
5:00 PM77 °FScattered clouds.5 mph40%29.87 "Hg31 mi
4:00 PM76 °FScattered clouds.3 mph44%29.87 "Hg28 mi
3:00 PM72 °FPartly sunny.3 mph55%29.89 "Hg25 mi
2:00 PM75 °FPartly sunny.6 mph46%29.90 "Hg25 mi
1:00 PM76 °FPartly sunny.5 mph43%29.89 "Hg25 mi
12:00 PM74 °FScattered clouds.3 mph49%29.90 "Hg25 mi
11:00 AM71 °FScattered clouds.3 mph55%29.92 "Hg25 mi
10:00 AM70 °FScattered clouds.2 mph50%29.92 "Hg22 mi
9:00 AM69 °FScattered clouds.1 mph54%29.93 "Hg19 mi
Weather by CustomWeather, © 2016

See weather overviewHow to use our weather pages